TimeMST,TemperatureF,Dew PointF,Humidity,Sea Level PressureIn,VisibilityMPH,Wind Direction,Wind SpeedMPH,Gust SpeedMPH,PrecipitationIn,Events,Conditions,WindDirDegrees,DateUTC
12:53 AM,30.9,21.9,69,29.99,-9999.0,SW,16.1,-,N/A,,Overcast,220,2013-02-05 07:53:00
1:53 AM,28.0,21.0,75,29.99,-9999.0,SW,12.7,-,N/A,,Mostly Cloudy,220,2013-02-05 08:53:00
2:53 AM,30.9,21.9,69,29.97,-9999.0,SSW,11.5,-,N/A,,Overcast,210,2013-02-05 09:53:00
3:53 AM,30.9,23.0,72,29.96,-9999.0,SSW,12.7,-,N/A,,Overcast,210,2013-02-05 10:53:00
4:53 AM,30.0,24.1,79,29.98,-9999.0,SSW,12.7,-,N/A,,Overcast,210,2013-02-05 11:53:00
5:53 AM,30.9,24.1,76,29.96,-9999.0,South,8.1,-,N/A,,Overcast,180,2013-02-05 12:53:00
6:53 AM,30.9,24.1,76,29.99,-9999.0,SW,9.2,-,N/A,,Overcast,220,2013-02-05 13:53:00
7:53 AM,28.9,23.0,78,30.00,-9999.0,South,6.9,-,N/A,,Scattered Clouds,180,2013-02-05 14:53:00
8:53 AM,30.9,23.0,72,29.99,-9999.0,SSW,8.1,-,N/A,,Overcast,200,2013-02-05 15:53:00
9:53 AM,34.0,24.1,67,29.97,-9999.0,SW,4.6,-,N/A,,Overcast,230,2013-02-05 16:53:00
10:53 AM,36.0,24.1,62,29.95,-9999.0,WSW,6.9,-,N/A,,Partly Cloudy,240,2013-02-05 17:53:00
11:53 AM,39.9,25.0,55,29.91,-9999.0,SW,12.7,-,N/A,,Partly Cloudy,220,2013-02-05 18:53:00
12:53 PM,45.0,25.0,46,29.85,-9999.0,SW,12.7,-,N/A,,Clear,230,2013-02-05 19:53:00
1:53 PM,43.0,25.0,49,29.85,-9999.0,West,5.8,-,N/A,,Overcast,270,2013-02-05 20:53:00
2:53 PM,44.1,25.0,47,29.79,-9999.0,SW,9.2,-,N/A,,Mostly Cloudy,230,2013-02-05 21:53:00
3:53 PM,43.0,24.1,47,29.79,-9999.0,SW,9.2,-,N/A,,Scattered Clouds,230,2013-02-05 22:53:00
4:53 PM,41.0,21.9,47,29.79,-9999.0,SW,12.7,-,N/A,,Scattered Clouds,220,2013-02-05 23:53:00
5:53 PM,36.0,21.9,57,29.81,-9999.0,WSW,10.4,-,N/A,,Clear,250,2013-02-06 00:53:00
6:53 PM,33.1,21.9,64,29.83,-9999.0,SSW,10.4,-,N/A,,Clear,210,2013-02-06 01:53:00
7:53 PM,33.1,21.9,64,29.85,-9999.0,SSW,9.2,-,N/A,,Clear,210,2013-02-06 02:53:00
8:53 PM,30.9,21.0,67,29.85,-9999.0,SSW,10.4,-,N/A,,Clear,200,2013-02-06 03:53:00
9:53 PM,30.0,21.0,69,29.86,-9999.0,SSW,9.2,-,N/A,,Partly Cloudy,210,2013-02-06 04:53:00
10:53 PM,30.0,21.0,69,29.85,-9999.0,SW,13.8,-,N/A,,Clear,220,2013-02-06 05:53:00
11:53 PM,28.9,19.9,69,29.84,-9999.0,SSW,15.0,-,N/A,,Clear,210,2013-02-06 06:53:00